TimeEDT,TemperatureF,Dew PointF,Humidity,Sea Level PressureIn,VisibilityMPH,Wind Direction,Wind SpeedMPH,Gust SpeedMPH,PrecipitationIn,Events,Conditions,WindDirDegrees,DateUTC
12:52 AM,72.0,66.0,81,29.96,10.0,South,4.6,-,N/A,,Overcast,190,2013-08-03 04:52:00
1:52 AM,73.0,66.0,79,29.97,10.0,Calm,Calm,-,N/A,,Overcast,0,2013-08-03 05:52:00
2:52 AM,72.0,66.0,81,29.96,10.0,SSW,3.5,-,0.00,,Overcast,210,2013-08-03 06:52:00
3:52 AM,71.1,66.9,87,29.96,10.0,Calm,Calm,-,0.00,,Overcast,0,2013-08-03 07:52:00
4:52 AM,69.1,66.9,93,29.96,10.0,Calm,Calm,-,N/A,,Overcast,0,2013-08-03 08:52:00
5:52 AM,70.0,66.0,87,29.97,10.0,Calm,Calm,-,N/A,,Mostly Cloudy,0,2013-08-03 09:52:00
6:52 AM,69.1,66.0,90,29.97,10.0,Calm,Calm,-,0.00,,Overcast,0,2013-08-03 10:52:00
7:52 AM,70.0,66.0,87,29.98,6.0,SW,5.8,-,0.00,Rain,Light Rain,220,2013-08-03 11:52:00
8:27 AM,69.8,66.2,88,30.01,1.5,Calm,Calm,-,0.05,Rain,Heavy Rain,0,2013-08-03 12:27:00
8:52 AM,68.0,68.0,100,29.97,1.0,Calm,Calm,-,0.16,Rain,Light Rain,0,2013-08-03 12:52:00
9:01 AM,68.0,68.0,100,29.99,5.0,Calm,Calm,-,0.00,Rain,Light Rain,0,2013-08-03 13:01:00
9:44 AM,68.0,66.2,94,30.01,1.8,WSW,8.1,-,0.05,Rain,Rain,250,2013-08-03 13:44:00
9:52 AM,66.9,64.9,93,29.99,1.5,West,5.8,-,0.08,Rain,Rain,270,2013-08-03 13:52:00
9:56 AM,66.2,64.4,94,30.01,3.0,West,3.5,-,0.00,Rain,Light Rain,260,2013-08-03 13:56:00
10:52 AM,71.1,68.0,90,29.98,10.0,Calm,Calm,-,0.00,,Overcast,0,2013-08-03 14:52:00
11:52 AM,71.1,68.0,90,29.99,10.0,Calm,Calm,-,N/A,,Overcast,0,2013-08-03 15:52:00
12:52 PM,75.0,70.0,84,29.99,10.0,Variable,3.5,-,N/A,,Mostly Cloudy,0,2013-08-03 16:52:00
1:52 PM,75.9,70.0,82,29.99,10.0,North,8.1,-,N/A,,Overcast,350,2013-08-03 17:52:00
2:52 PM,77.0,70.0,79,29.99,10.0,NNW,9.2,-,0.00,,Overcast,340,2013-08-03 18:52:00
3:52 PM,80.1,70.0,71,29.98,10.0,NNW,6.9,-,N/A,,Mostly Cloudy,340,2013-08-03 19:52:00
4:08 PM,78.8,69.8,74,30.00,10.0,North,8.1,-,N/A,,Mostly Cloudy,350,2013-08-03 20:08:00
4:52 PM,80.1,68.0,67,29.98,10.0,North,10.4,-,N/A,,Mostly Cloudy,360,2013-08-03 20:52:00
5:12 PM,80.6,68.0,65,30.00,10.0,North,9.2,-,N/A,,Mostly Cloudy,350,2013-08-03 21:12:00
5:52 PM,79.0,68.0,69,29.97,10.0,North,9.2,-,N/A,,Mostly Cloudy,360,2013-08-03 21:52:00
6:52 PM,80.1,66.9,64,29.97,10.0,NNW,9.2,-,N/A,,Mostly Cloudy,340,2013-08-03 22:52:00
7:28 PM,78.8,64.4,61,30.00,10.0,NNW,9.2,-,N/A,,Scattered Clouds,340,2013-08-03 23:28:00
7:42 PM,78.8,64.4,61,30.00,10.0,North,5.8,-,N/A,,Scattered Clouds,350,2013-08-03 23:42:00
7:52 PM,78.1,64.9,64,29.98,10.0,North,5.8,-,N/A,,Scattered Clouds,350,2013-08-03 23:52:00
8:52 PM,73.9,64.0,71,29.98,10.0,NNW,4.6,-,N/A,,Scattered Clouds,330,2013-08-04 00:52:00
9:52 PM,73.0,63.0,71,30.00,10.0,NNW,6.9,-,N/A,,Partly Cloudy,340,2013-08-04 01:52:00
10:52 PM,72.0,61.0,68,30.01,10.0,NNW,4.6,-,N/A,,Partly Cloudy,330,2013-08-04 02:52:00
11:52 PM,70.0,63.0,78,30.04,10.0,NNW,8.1,-,N/A,,Partly Cloudy,330,2013-08-04 03:52:00